STARLINK-31955, 59939

Orbit data source: Space-Track

STARLINK-31955, 59939 is a payload satellite owned by SpaceX/Seattle (US) in LEO that was launched on Sat, 01 Jun 2024 UTC via an FALCON 9 launch vehicle from the Air Force Eastern Test Range (AFETR). Payload-class satellites include a variety of spacecraft equipped with specific instruments for various scientific and technological missions. These include communications satellites like Starlink; space stations such as the ISS; scientific satellites like the Hubble; Earth observation satellites from companies like Planet Labs, Umbra, and HawkEye 360; GPS; miniature CubeSats for education and research; and military/defense satellites.

Loading next visibility...
Identifier
59939, 2024-106T
Orbit
LEO
Last TLE update
16 hours ago
Origin
Manufacturer
SpaceX/Seattle
Mission
Operational spacecraft
Bus & Motor
STARLINK V2M, Unknown motor
Mass
730 kg wet, ~700 kg dry
Launch date (UTC)
2024-06-01 (1 year ago)
Launch vehicle
FALCON 9
Launch site
Air Force Eastern Test Range (AFETR)
Object type
Payload
Rocket body
Debris
Shape & HBR
Unknown
Radar Cross Section
Large (>1 m²)

Expand to show TLE details & history

TLE from 16 hours ago
0 STARLINK-31955
1 59939U 24106T   25199.33592250  .00000246  00000-0  18453-4 0  9990
2 59939  43.0001 215.8366 0001275 275.2048  84.8658 15.27577338 64725
Epoch: 2025-07-18T08:03Z
TLE epoch observation values (Epoch: 2025-07-18T08:03:43.704Z)
Latitude
-0.00001°
Longitude
158.51565°
Altitude
482.754 km
Speed
7.626 km/s
True Right ascension
14h 23m 20s
True Declination
0° 00' 00"
Sunlit
Object was in daylight at epoch
Visualization orbit readout
Latitude
-4.53933°
Longitude
149.97124°
Altitude
483.291 km
Speed
7.625 km/s
Apparent Right ascension
16h 14m 30s
Apparent Declination
-59° 06' 34"
Sunlit
Object is in daylight
Visualization observer readout
Local Sidereal Time
12:31:12
Azimuth
153.266° SSE
Elevation
-19.235°
Doppler factor
1
Orbital elements
Apogee altitude
485.877 km
Perigee altitude
484.127 km
Semi-major axis
6,863.139 km
Eccentricity
0.00013
Inclination
43.0001°
RAAN
215.8366°
Arg. of periapsis
275.2048°
True anomaly
84.88035°
Mean anomaly
84.8658°
Eccentric anomaly
84.87308°
Mean motion
3.81732 °/min
Orbital period
94.31 mins
BSTAR
0.000018453
Loading maneuver chart data...
Loading SW <> Apogee altitude chart data...
Loading historical data...
Loading historical data...
Loading historical data...
Loading historical data...
Loading historical data...
Loading historical data...
Loading historical data...
|